Flag for Laos Weather past 2 weeks in Vientiane, Laos

Now
82 °F

Fog.


Feels Like: 87 °F
Forecast: 77 / 92 °F
Wind: 2 mph from North

Location: Vientiane Airport

Current Time: Apr 27, 2015 at 12:50:05 AM

Latest Report: Apr 26, 2015 at 11:00 PM


Visibility: 2 mi

Pressure: 29.89 "Hg

Humidity: 70%

Dew point: 72 °F

Location of VientianeLocation

Historic Weather in Vientiane — Graph

°F

Vientiane temperature yesterday

Maximum temperature yesterday: 88 °F (at 6:00 PM)
Minimum temperature yesterday: 75 °F (at 6:00 AM)
Average temperature yesterday: 82 °F

Past Weeks' High & Low Weather Summary

 TemperatureHumidityPressure
High104 °F (Apr 20, 2:00 PM)100% (Apr 12, 6:00 AM)30.09 "Hg (Apr 12, 6:00 AM)
Low64 °F (Apr 15, 6:00 AM)27% (Apr 14, 6:30 PM)26.58 "Hg (Apr 26, 5:30 PM)
Average85 °F60%29.84 "Hg
* Reported Apr 11 11:00 PM — Apr 26 11:00 PM, Vientiane, Weather by CustomWeather, © 2015

Note: Actual official high and low records may vary slightly from our data, if they occured in-between our weather recording intervals... More about our weather records

Advertising

Vientiane weather history for previous 24 hours

 ConditionsComfort  
Time TempWeatherWind HumidityBarometerVisibility
11:00 PM
Sun, Apr 26
82 °FFog.2 mph70%29.89 "Hg2 mi
10:30 PM81 °FFog.2 mph79%29.89 "Hg2 mi
10:00 PM82 °FFog.2 mph74%29.89 "Hg2 mi
9:00 PM84 °FFog.2 mph70%29.86 "Hg2 mi
8:30 PM82 °FFog.2 mph79%29.89 "Hg2 mi
8:00 PM84 °FFog.2 mph74%29.86 "Hg2 mi
7:00 PM86 °FFog.2 mph62%29.83 "Hg2 mi
6:30 PM86 °FPassing clouds.2 mph62%29.80 "Hg4 mi
6:00 PM88 °FScattered clouds.2 mph59%29.80 "Hg5 mi
5:30 PMN/A7 mphN/A26.58 "Hg6 mi
3:30 PM86 °FScattered clouds.2 mph62%29.83 "Hg4 mi
3:00 PM84 °FPartly sunny.2 mph66%29.86 "Hg4 mi
2:30 PM84 °FPartly sunny.2 mph66%29.86 "Hg4 mi
2:00 PM84 °FPartly sunny.2 mph66%29.89 "Hg4 mi
11:30 AM84 °FBroken clouds.2 mph66%29.98 "Hg4 mi
11:00 AM82 °FPartly sunny.2 mph70%29.98 "Hg4 mi
10:30 AM81 °FBroken clouds.2 mph79%29.98 "Hg4 mi
10:00 AM79 °FPartly sunny.2 mph84%29.98 "Hg4 mi
9:30 AM79 °FFog.2 mph84%30.01 "Hg3 mi
9:00 AM79 °FFog.2 mph84%29.98 "Hg3 mi
8:30 AM79 °FFog.2 mph79%29.98 "Hg3 mi
8:00 AM77 °FFog.2 mph83%29.98 "Hg2 mi
7:30 AM77 °FFog.2 mph89%29.95 "Hg2 mi
7:00 AM77 °FFog.2 mph89%29.95 "Hg2 mi
6:30 AM75 °FFog.2 mph94%29.89 "Hg2 mi
6:00 AM75 °FFog.2 mph94%29.89 "Hg2 mi
Weather by CustomWeather, © 2015

See weather overviewHow to use our weather pages